Regional Weather Roundup
Issued by NWS

Home | Current Version | Previous Version | Graphics & Text | Print | Product List | Glossary On
Versions: 1 2 3 4 5 6 7 8 9 10 11 12 13 14 15 16 17 18 19 20 21 22 23 24 25 26 27 28 29 30 31 32 33 34 35 36 37 38 39 40 41 42 43 44 45 46 47 48 49 50
000
ASUS45 KBOU 050207
RWRCO

WEATHER ROUNDUP FOR COLORADO
NATIONAL WEATHER SERVICE DENVER/BOULDER CO
700 PM MST SUN DEC 04 2016

NOTE: "FAIR" INDICATES FEW OR NO CLOUDS BELOW 12000 FEET WITH NO
SIGNIFICANT WEATHER AND/OR OBSTRUCTIONS TO VISIBILITY.

COZ001>005-013-030-031-050300-
...NORTHWEST COLORADO...

CITY           SKY/WX    TMP DP  RH WIND       PRES   REMARKS
CRAIG          CLOUDY    28  16  60 CALM      29.93F
HAYDEN         CLOUDY    27  12  54 SE5       29.93F WCI  21
MEEKER         FAIR      33  13  43 W8        29.94F WCI  26
MOUNT WERNER   NOT AVBL
STEAMBOAT SPGS NOT AVBL
WALDEN         NOT AVBL
$$

COZ006>008-011-050300-
...WEST CENTRAL VALLEYS...

CITY           SKY/WX    TMP DP  RH WIND       PRES   REMARKS
GRAND JUNCTION FAIR      29  18  63 CALM      30.05F
MONTROSE       CLOUDY    30  18  60 CALM      30.07S
EAGLE          CLOUDY    32  14  47 CALM      30.01F
RIFLE          CLOUDY    32  20  61 SE3       30.03F
DELTA          CLOUDY    35  18  49 CALM      30.06F
NUCLA          FAIR      32  10  40 SE8       30.09F WCI  25
$$

COZ017>023-064>068-050300-
...SOUTHWEST COLORADO...

CITY           SKY/WX    TMP DP  RH WIND       PRES   REMARKS
DURANGO        FAIR      25  19  78 N3        30.08S
CORTEZ         FAIR      25  19  78 E6        30.08F WCI  18
PAGOSA SPRINGS FAIR      30  20  68 CALM      30.09S
TELLURIDE      NOT AVBL
WOLF CREEK PAS NOT AVBL
$$

COZ009-010-012-014-032>034-037-058>063-050300-
...CENTRAL COLORADO...

CITY           SKY/WX    TMP DP  RH WIND       PRES   REMARKS
ASPEN          CLOUDY    27  15  61 S3        29.98F
BUENA VISTA    FAIR      37  11  34 W12       29.94R
COPPER MTN     NOT AVBL
BERTHOUD PASS  NOT AVBL
COTTONWOOD PAS NOT AVBL
GUNNISON       FAIR      17   9  70 N5        30.08S WCI  10
KREMMLING      NOT AVBL
LEADVILLE      CLOUDY    29  11  47 N14G22    29.98F WCI  18
SALIDA         FAIR      40  13  32 SW20G32   29.99S
SUNLIGHT       NOT AVBL
WILKERSON PASS NOT AVBL
$$

COZ069>075-050300-
...SAN LUIS VALLEY/SANGRE DE CRISTO MOUNTAINS...

CITY           SKY/WX    TMP DP  RH WIND       PRES   REMARKS
ALAMOSA        FAIR      14  10  84 SE6       30.03F WCI   5
LA VETA PASS   NOT AVBL
SAGUACHE       NOT AVBL
$$

COZ035-036-038>040-050300-
...NORTHERN COLORADO FRONT RANGE...

CITY           SKY/WX    TMP DP  RH WIND       PRES   REMARKS
DENVER INTL AP FAIR      31   9  39 S7        29.78F WCI  24
DMNS CITY PARK   N/A     45   8  21 SW7G16    29.78S
AURORA         MOCLDY    39   9  28 S7        29.79F
FRONT RANGE AP PTCLDY    36  10  35 S9G16     29.79F
ERIE MUNI ARPT NOT AVBL
BOULDER MUN AP FAIR      45  16  31 NW10      29.76R
CENTENNIAL     FAIR      36  10  34 S10       29.78F
BROOMFIELD     PTCLDY    45  12  26 E8        29.79F
FORT COLLINS   FAIR      50  16  25 W12       29.77R
LONGMONT       NOT AVBL
$$

COZ041-046-047-076>085-087-088-050300-
...PIKES PEAK/PALMER DIVIDE AND SOUTHERN FOOTHILLS...

CITY           SKY/WX    TMP DP  RH WIND       PRES   REMARKS
COLO. SPRINGS  FAIR      30   7  37 N5        29.86F WCI  25
A. F. ACADEMY  FAIR      29  10  44 CALM      29.85S
SCHRIEVER AFB  NOT AVBL
ELLICOTT       FAIR     N/A N/A N/A S6        29.84F
FALCON         FAIR      31   7  36 SW3       29.86F
FORT CARSON    FAIR      32  10  39 N3        29.84F
LIMON          FAIR      22   8  55 S5        29.85F WCI  16
MONUMENT HILL  NOT AVBL
TRINIDAD       FAIR      43  15  32 SW16      29.87F
$$

COZ042>045-048>051-090-091-050300-
...NORTHEAST COLORADO...

CITY           SKY/WX    TMP DP  RH WIND       PRES   REMARKS
GREELEY ARPT   FAIR      33  14  45 SE5       29.77S WCI  29
AKRON          FAIR      37  12  35 SW10      29.78S
BURLINGTON     FAIR      33  11  39 S14       29.84F WCI  23
WRAY           NOT AVBL
STERLING       NOT AVBL
HOLYOKE        FAIR      37  16  41 S15       29.77S
FORT MORGAN    FAIR      34  13  41 CALM      29.77F
$$

COZ086-089-092>099-050300-
...SOUTHEAST COLORADO...

CITY           SKY/WX    TMP DP  RH WIND       PRES   REMARKS
PUEBLO         FAIR      35  13  40 N8        29.83S WCI  29
LA JUNTA       FAIR      40  15  36 SE6       29.82F
LAMAR          FAIR      38  15  39 S3        29.83F
SPRINGFIELD      N/A     36  17  46 S17       29.88F
$$



USA.gov is the U.S. government's official web portal to all federal, state and local government web resources and services.